GW4858 Weather Reports


time (UTC)temp
C
wind
direction
speed
KPH
gust
KPH
rain 1hr
cm
rain 24hr
cm
rain mn
cm
humidity
%
barometer
mb
20260505082154 13 324 0.0 1.6 0.00 0.00 0.00 82 1013.8
20260505081650 13 345 0.0 0.0 0.00 0.00 0.00 82 1013.6
20260505081148 13 309 0.0 1.6 0.00 0.00 0.00 82 1013.6
20260505080644 14 324 0.0 0.0 0.00 0.00 0.00 82 1013.5
20260505080140 14 321 0.0 1.6 0.00 0.00 0.00 83 1013.7
20260505075636 14 279 0.0 3.2 0.00 0.00 0.00 83 1013.6
20260505075133 14 348 0.0 1.6 0.00 0.00 0.00 83 1013.7
20260505074630 14 336 0.0 1.6 0.00 0.00 0.00 83 1013.6
20260505074127 13 154 6.4 6.4 0.00 0.00 0.00 84 1013.6
20260505073625 13 325 0.0 0.0 0.00 0.00 0.00 84 1013.5
20260505073123 13 285 4.8 4.8 0.00 0.00 0.00 85 1013.6
20260505072618 13 267 1.6 3.2 0.00 0.00 0.00 85 1013.4
20260505072115 13 244 3.2 3.2 0.00 0.00 0.00 85 1013.3
20260505071611 13 311 0.0 3.2 0.00 0.00 0.00 85 1013.5
20260505071109 12 311 0.0 4.8 0.00 0.00 0.00 85 1013.4
20260505070606 12 319 0.0 0.0 0.00 0.00 0.00 85 1013.3
20260505065558 12 326 0.0 0.0 0.00 0.00 0.00 85 1013.5
20260505065054 12 331 0.0 0.0 0.00 0.00 0.00 84 1013.7
20260505064551 12 328 0.0 0.0 0.00 0.00 0.00 84 1013.7
20260505064050 12 324 0.0 0.0 0.00 0.00 0.00 84 1013.6
20260505063547 12 320 0.0 0.0 0.00 0.00 0.00 84 1013.5
20260505063042 12 326 0.0 0.0 0.00 0.00 0.00 83 1013.7
20260505062539 12 328 0.0 0.0 0.00 0.00 0.00 83 1013.5
20260505062037 12 326 0.0 0.0 0.00 0.00 0.00 82 1013.6
20260505061534 12 313 0.0 0.0 0.00 0.00 0.00 82 1013.6
20260505061032 12 308 0.0 0.0 0.00 0.00 0.00 82 1013.8
20260505060529 12 331 0.0 1.6 0.00 0.00 0.00 81 1014.0
20260505060026 12 321 0.0 0.0 0.00 0.00 0.00 80 1013.9
20260505055521 12 325 0.0 0.0 0.00 0.00 0.00 80 1013.9
20260505055018 12 323 0.0 0.0 0.00 0.00 0.00 79 1013.8
20260505054515 12 327 0.0 0.0 0.00 0.00 0.00 78 1013.9
20260505054013 12 325 0.0 0.0 0.00 0.00 0.00 77 1013.9
20260505053510 12 336 0.0 0.0 0.00 0.00 0.00 77 1013.8
20260505053007 13 323 0.0 0.0 0.00 0.00 0.00 76 1013.9
20260505052504 13 323 0.0 0.0 0.00 0.00 0.00 75 1013.8
20260505052001 13 331 0.0 0.0 0.00 0.00 0.00 74 1013.8
20260505051458 13 331 0.0 0.0 0.00 0.00 0.00 73 1014.1
20260505050956 13 326 0.0 0.0 0.00 0.00 0.00 73 1014.0
20260505050454 13 318 0.0 0.0 0.00 0.00 0.00 72 1014.2
20260505041422 15 303 0.0 1.6 0.00 0.00 0.00 68 1014.1
20260505040919 15 191 3.2 4.8 0.00 0.00 0.00 68 1014.3
20260505040416 15 302 0.0 0.0 0.00 0.00 0.00 68 1014.1
20260505035913 15 312 0.0 1.6 0.00 0.00 0.00 68 1014.2
20260505035409 15 316 0.0 1.6 0.00 0.00 0.00 68 1014.1
20260505034907 15 286 0.0 3.2 0.00 0.00 0.00 68 1014.2
20260505034403 15 313 0.0 1.6 0.00 0.00 0.00 68 1014.2
20260505033900 15 320 0.0 0.0 0.00 0.00 0.00 68 1014.3
20260505033356 15 318 0.0 0.0 0.00 0.00 0.00 68 1014.4
20260505032855 15 303 0.0 1.6 0.00 0.00 0.00 68 1014.3
20260505032351 15 312 0.0 1.6 0.00 0.00 0.00 68 1014.5
20260505031848 15 271 3.2 3.2 0.00 0.00 0.00 69 1014.3
20260505031345 14 312 1.6 3.2 0.00 0.00 0.00 69 1014.3
20260505030842 14 313 0.0 0.0 0.00 0.00 0.00 69 1014.3
20260505030338 14 315 0.0 0.0 0.00 0.00 0.00 69 1014.5
20260505025833 14 316 0.0 0.0 0.00 0.00 0.00 68 1014.7
20260505025331 14 251 1.6 3.2 0.00 0.00 0.00 68 1014.6
20260505024829 14 328 0.0 0.0 0.00 0.00 0.00 68 1014.6
20260505024327 15 317 0.0 0.0 0.00 0.00 0.00 67 1014.7
20260505023824 15 316 0.0 0.0 0.00 0.00 0.00 67 1014.5
20260505023321 15 317 0.0 0.0 0.00 0.00 0.00 67 1014.6
20260505022818 15 330 0.0 0.0 0.00 0.00 0.00 67 1014.7
20260505022315 15 286 0.0 0.0 0.00 0.00 0.00 66 1014.9
20260505021812 15 323 0.0 0.0 0.00 0.00 0.00 66 1014.8
20260505021309 15 297 1.6 1.6 0.00 0.00 0.00 66 1014.8
20260505020804 15 304 1.6 1.6 0.00 0.00 0.00 66 1014.8
20260505020300 15 312 1.6 3.2 0.00 0.00 0.00 66 1014.8
20260505015757 15 316 0.0 1.6 0.00 0.00 0.00 66 1014.7
20260505015254 15 321 0.0 3.2 0.00 0.00 0.00 66 1014.7
20260505014751 15 250 1.6 3.2 0.00 0.00 0.00 66 1014.7
20260505014249 15 325 1.6 3.2 0.00 0.00 0.00 66 1014.6
20260505013745 15 253 0.0 0.0 0.00 0.00 0.00 66 1014.8
20260505013243 15 286 1.6 3.2 0.00 0.00 0.00 66 1014.7
20260505012741 15 249 3.2 3.2 0.00 0.00 0.00 66 1014.6
20260505012238 15 314 1.6 3.2 0.00 0.00 0.00 66 1014.5
20260505011733 16 195 1.6 3.2 0.00 0.00 0.00 66 1014.5
20260505011231 15 293 1.6 4.8 0.00 0.00 0.00 66 1014.5
20260505010726 16 328 1.6 3.2 0.00 0.00 0.00 66 1014.4
20260505010223 16 207 1.6 3.2 0.00 0.00 0.00 67 1014.3
20260505005719 15 264 3.2 4.8 0.00 0.00 0.00 67 1014.2
20260505005216 15 260 1.6 3.2 0.00 0.00 0.00 67 1014.3
20260505004713 16 306 0.0 4.8 0.00 0.00 0.00 67 1014.0
20260505004210 16 294 1.6 3.2 0.00 0.00 0.00 66 1014.1
20260505003707 16 298 1.6 4.8 0.00 0.00 0.00 66 1014.1
20260505003205 16 320 0.0 3.2 0.00 0.00 0.00 65 1014.2
20260505002701 16 277 3.2 3.2 0.00 0.00 0.00 64 1014.1
20260505002159 16 182 3.2 6.4 0.00 0.00 0.00 63 1013.9
20260505001655 16 219 3.2 6.4 0.00 0.00 0.00 62 1013.8
20260505001153 17 290 3.2 3.2 0.00 0.00 0.00 60 1013.6
20260505000650 17 300 0.0 4.8 0.00 0.00 0.00 60 1013.7
20260505000148 17 277 1.6 4.8 0.00 0.00 0.00 60 1013.5
20260504235644 17 2 1.6 1.6 0.00 0.00 0.00 60 1013.4
20260504235140 17 355 0.0 6.4 0.00 0.00 0.00 60 1013.3
20260504234638 17 274 3.2 6.4 0.00 0.00 0.00 60 1013.5
20260504234135 17 248 6.4 9.7 0.00 0.00 0.00 59 1013.5
20260504233631 17 246 1.6 3.2 0.00 0.00 0.00 58 1013.3
20260504233127 18 276 3.2 3.2 0.00 0.00 0.00 57 1013.2
20260504232625 18 283 1.6 3.2 0.00 0.00 0.00 56 1013.3
20260504232121 18 291 0.0 3.2 0.00 0.00 0.00 56 1013.1
20260504231618 18 203 1.6 4.8 0.00 0.00 0.00 56 1013.3
20260504231114 18 223 3.2 3.2 0.00 0.00 0.00 56 1013.2
20260504230610 18 337 4.8 4.8 0.00 0.00 0.00 57 1013.2
20260504230109 18 292 0.0 3.2 0.00 0.00 0.00 57 1013.0
20260504225607 18 198 3.2 3.2 0.00 0.00 0.00 58 1013.1
20260504225103 18 199 3.2 4.8 0.00 0.00 0.00 58 1013.0
20260504224600 18 290 3.2 9.7 0.00 0.00 0.00 57 1013.1
20260504224057 18 202 0.0 6.4 0.00 0.00 0.00 56 1012.8
20260504223554 18 355 1.6 6.4 0.00 0.00 0.00 56 1012.9
20260504223050 19 248 3.2 4.8 0.00 0.00 0.00 55 1012.8
20260504222547 19 153 6.4 11.3 0.00 0.00 0.00 55 1012.9
20260504222044 19 252 3.2 4.8 0.00 0.00 0.00 54 1013.0
20260504221542 19 202 3.2 11.3 0.00 0.00 0.00 54 1012.9
20260504221038 19 313 1.6 12.9 0.00 0.00 0.00 54 1013.0
20260504220535 19 47 3.2 9.7 0.00 0.00 0.00 54 1013.0
20260504220032 19 246 6.4 14.5 0.00 0.00 0.00 54 1013.2
20260504215528 19 158 4.8 12.9 0.00 0.00 0.00 54 1013.1
20260504215026 19 83 3.2 6.4 0.00 0.00 0.00 53 1013.0
20260504214521 19 262 3.2 11.3 0.00 0.00 0.00 53 1012.9
20260504214018 19 351 3.2 9.7 0.00 0.00 0.00 53 1013.2
20260504213514 20 164 4.8 6.4 0.00 0.00 0.00 53 1013.2
20260504213012 19 115 3.2 6.4 0.00 0.00 0.00 53 1013.1
20260504212507 19 295 3.2 6.4 0.00 0.00 0.00 53 1013.1
20260504212005 20 155 3.2 11.3 0.00 0.00 0.00 52 1013.2
20260504211501 20 180 4.8 9.7 0.00 0.00 0.00 51 1013.1
20260504210959 20 210 6.4 12.9 0.00 0.00 0.00 50 1013.1
20260504210456 20 176 3.2 9.7 0.00 0.00 0.00 50 1013.0
20260504205952 20 141 8.0 9.7 0.00 0.00 0.00 50 1013.1
20260504205450 20 240 6.4 11.3 0.00 0.00 0.00 50 1013.1
20260504204948 20 166 6.4 9.7 0.00 0.00 0.00 49 1013.1
20260504204446 20 283 4.8 9.7 0.00 0.00 0.00 49 1012.9
20260504203945 20 198 6.4 11.3 0.00 0.00 0.00 49 1013.0
20260504203442 20 184 6.4 11.3 0.00 0.00 0.00 50 1012.9
20260504202938 20 331 3.2 11.3 0.00 0.00 0.00 49 1012.9
20260504202435 20 301 3.2 9.7 0.00 0.00 0.00 51 1012.9
20260504201932 20 109 6.4 6.4 0.00 0.00 0.00 51 1013.0
20260504201429 20 254 6.4 9.7 0.00 0.00 0.00 50 1012.8
20260504200926 20 174 3.2 9.7 0.00 0.00 0.00 52 1012.9
20260504200423 20 216 6.4 11.3 0.00 0.00 0.00 52 1013.0
20260504195920 20 195 3.2 6.4 0.00 0.00 0.00 52 1013.0
20260504195416 20 190 4.8 6.4 0.00 0.00 0.00 51 1013.2
20260504194912 20 162 4.8 6.4 0.00 0.00 0.00 50 1013.4
20260504194408 20 172 3.2 6.4 0.00 0.00 0.00 50 1013.2
20260504193904 21 241 1.6 6.4 0.00 0.00 0.00 49 1013.3
20260504193402 21 244 3.2 6.4 0.00 0.00 0.00 47 1013.4
20260504192900 21 246 1.6 9.7 0.00 0.00 0.00 46 1013.2
20260504192357 22 144 8.0 9.7 0.00 0.00 0.00 45 1013.3
20260504191856 23 226 3.2 4.8 0.00 0.00 0.00 34 1013.6
20260504191354 23 273 8.0 11.3 0.00 0.00 0.00 32 1013.6
20260504190849 23 303 6.4 12.9 0.00 0.00 0.00 33 1013.7
20260504190345 23 335 3.2 3.2 0.00 0.00 0.00 33 1013.6
20260504185842 23 264 4.8 12.9 0.00 0.00 0.00 32 1013.9
20260504185339 23 353 3.2 6.4 0.00 0.00 0.00 33 1013.6
20260504184834 23 188 4.8 9.7 0.00 0.00 0.00 34 1013.7
20260504184331 22 88 3.2 6.4 0.00 0.00 0.00 33 1013.8
20260504183826 22 196 8.0 14.5 0.00 0.00 0.00 33 1013.9
20260504183324 23 203 14.5 17.7 0.00 0.00 0.00 33 1014.0
20260504182822 23 247 1.6 11.3 0.00 0.00 0.00 35 1014.0
20260504182319 23 112 6.4 6.4 0.00 0.00 0.00 33 1014.2
20260504181816 22 333 3.2 11.3 0.00 0.00 0.00 34 1014.2
20260504181314 22 252 1.6 9.7 0.00 0.00 0.00 34 1014.2
20260504180812 22 265 3.2 9.7 0.00 0.00 0.00 34 1014.3
20260504180310 22 316 1.6 4.8 0.00 0.00 0.00 35 1014.5
20260504175808 22 338 3.2 16.1 0.00 0.00 0.00 34 1014.2
20260504175305 22 162 3.2 6.4 0.00 0.00 0.00 35 1014.4
20260504174803 22 176 3.2 9.7 0.00 0.00 0.00 34 1014.5
20260504174300 22 283 4.8 9.7 0.00 0.00 0.00 35 1014.5
20260504173756 22 237 1.6 6.4 0.00 0.00 0.00 35 1014.6
20260504173253 21 322 1.6 12.9 0.00 0.00 0.00 35 1014.8
20260504172750 22 111 4.8 16.1 0.00 0.00 0.00 34 1014.8
20260504172247 22 279 1.6 3.2 0.00 0.00 0.00 36 1014.7
20260504171743 22 347 3.2 4.8 0.00 0.00 0.00 35 1014.9
20260504171240 21 292 1.6 11.3 0.00 0.00 0.00 35 1015.1
20260504170737 21 195 6.4 17.7 0.00 0.00 0.00 34 1014.9
20260504170234 21 234 11.3 16.1 0.00 0.00 0.00 34 1015.0
20260504160153 21 278 3.2 12.9 0.00 0.00 0.00 37 1015.8
20260504151120 20 322 3.2 4.8 0.00 0.00 0.00 38 1016.2
20260504150618 20 245 4.8 9.7 0.00 0.00 0.00 38 1016.3
20260504150115 19 241 4.8 11.3 0.00 0.00 0.00 39 1016.3
20260504141043 18 248 1.6 24.1 0.00 0.00 0.00 40 1016.7
20260504140540 18 311 3.2 9.7 0.00 0.00 0.00 41 1016.5
20260504130504 16 307 1.6 3.2 0.00 0.00 0.00 53 1017.1
20260504110351 10 326 1.6 12.9 0.00 0.00 0.00 67 1017.9
20260504100309 9 268 1.6 9.7 0.00 0.00 0.00 64 1017.8